Location: El Conde
(10.2895°N, 67.2409°W)
Time: 19:35:52
(UTC+00:00)

Cosmos 1500 - Pass Details

Date: 19 May 2024
Orbit: 440 x 452 km, 82.5° (Epoch: 12 June)

Event Time Altitude Azimuth Distance (km) Brightness Sun altitude
Rises 23:43:31 0° 356° (N) 2,441 7.0 -14.3°
Reaches altitude 10° 23:45:35 10° 356° (N) 1,567 6.0 -14.8°
Maximum altitude 23:49:00 88° 83° (E) 449 2.8 -15.5°
Enters shadow 23:51:38 16° 175° (S) 1,247 4.9 -16.1°
